Torna al catalogo

LEMUR 2 THERMORAPTOR

AttivoMeteoSSO
NORAD 63354·PAYLOAD·🇺🇸 United States

Lanciato Mar 26, 2025 da Rocket Lab Launch Complex 1

Loading…

Prossimi Passaggi (prossime 24 ore)

TLE

AggiornatoSource: Space-Track

Epoca: Sep 14, 2026, 09:50 UTC

1 63354U 25061D   26257.40979055  .00003483  00000-0  19141-3 0  9993
2 63354  97.5804 233.0571 0017401 311.9600  48.0148 15.14648367 81111

Traccia LEMUR 2 THERMORAPTOR in tempo reale con AllMySat

Download on the App Store